Location: Ballingbuur
(53.0000°N, 5.7667°E)
Time: 16:26:37
(UTC+00:00)

Cosmos 1356 - Visible Passes

Search period start: 13 April 2021 00:00
Search period end: 23 April 2021 00:00
Orbit: 439 x 442 km, 81.1° (Epoch: 13 April)

Date Brightness Start Highest point End Pass type
(mag) Time Alt. Az. Time Alt. Az. Time Alt. Az.
13 Apr 5.4 19:30:09 10° NNE 19:32:12 15° ENE 19:33:59 11° E visible
13 Apr 3.9 21:03:30 10° NNW 21:06:52 54° W 21:07:28 46° SW visible
14 Apr 3.4 20:25:01 10° N 20:28:27 66° ENE 20:29:40 36° SE visible
14 Apr 6.2 22:01:08 10° WNW 22:02:15 11° W 22:03:10 10° WSW visible
15 Apr 4.4 19:46:48 10° N 19:49:54 31° ENE 19:51:54 17° ESE visible
15 Apr 5.5 21:21:22 10° NW 21:24:05 22° W 21:25:23 18° SW visible
16 Apr 4.2 20:42:30 10° NNW 20:45:49 47° W 20:47:39 23° SSW visible
17 Apr 3.3 20:03:57 10° N 20:07:24 77° ENE 20:09:55 17° SSE visible
18 Apr 4.2 19:25:41 10° N 19:28:52 35° ENE 19:32:01 10° SE visible
18 Apr 5.8 21:00:25 10° NW 21:02:59 20° W 21:05:32 10° SW visible
19 Apr 4.6 20:21:27 10° NNW 20:24:42 40° W 20:27:55 10° SSW visible
20 Apr 3.4 19:42:51 10° NNW 19:46:18 88° ENE 19:49:43 10° SSE visible
21 Apr 6.1 20:39:27 10° NW 20:41:49 18° W 20:44:09 10° SW visible
22 Apr 4.9 20:00:22 10° NNW 20:03:32 35° W 20:06:41 10° SSW visible
